User: anonymous   Login
Location: Bremen
(53.0793°N, 8.8017°E)
Time: 00:15:31
(UTC+01:00)
Language:

deb Explorer IX - Orbit

View from above orbital plane
View from above orbital plane
View from above satellite
View from above satellite

Ground track
Ground track

The orbit data is extracted from the following two-line orbital elements,

1 00085U 61004C   21339.67527929  .00004966  00000-0  10728-2 0  9994
2 00085  38.7619 161.6061 0375244 118.4732 245.4343 14.22862696  7436
Epoch (UTC): 05 December 2021 16:12:24
Eccentricity: 0.0375244
inclination: 38.7619°
perigee height: 546 km
apogee height: 1085 km
right ascension of ascending node: 161.6061°
argument of perigee: 118.4732°
revolutions per day: 14.22862696
mean anomaly at epoch: 245.4343°
orbit number at epoch: 743

The dashed part of the orbit path shows where the satellite is in the earth's shadow,  

DLR